FW9643 Weather Reports


time (UTC)temp
C
wind
direction
speed
KPH
gust
KPH
rain 1hr
cm
rain 24hr
cm
rain mn
cm
humidity
%
barometer
mb
20260507193133 -17 48 1.6 1.6 0.00 0.05 0.05 1019.6
20260507192629 -17 66 1.6 3.2 0.00 0.05 0.05 1019.8
20260507192126 -17 22 3.2 3.2 0.00 0.05 0.05 1019.6
20260507191621 -17 53 1.6 1.6 0.00 0.05 0.05 1019.9
20260507191119 -17 35 1.6 1.6 0.00 0.05 0.05 1019.6
20260507190616 -17 14 1.6 3.2 0.00 0.05 0.05 1020.0
20260507190115 -17 70 0.0 0.0 0.00 0.05 0.05 1020.3
20260507185613 -17 41 0.0 0.0 0.00 0.05 0.05 1020.1
20260507185109 -17 47 0.0 0.0 0.00 0.05 0.05 1020.3
20260507184607 -17 46 0.0 1.6 0.00 0.05 0.05 1020.7
20260507184104 -17 76 1.6 4.8 0.00 0.05 0.05 1020.3
20260507183600 -17 75 0.0 0.0 0.00 0.05 0.05 1020.4
20260507183058 -17 46 1.6 3.2 0.00 0.05 0.05 1020.4
20260507182554 -17 51 0.0 1.6 0.00 0.05 0.05 1020.6
20260507182049 -17 58 0.0 1.6 0.00 0.05 0.05 1020.7
20260507181547 -17 44 1.6 1.6 0.00 0.05 0.05 1020.7
20260507181043 -17 44 0.0 0.0 0.00 0.05 0.05 1020.9
20260507180539 -17 51 0.0 0.0 0.00 0.05 0.05 1020.6
20260507180037 -17 46 3.2 3.2 0.00 0.05 0.05 1020.6
20260507175532 -17 47 0.0 0.0 0.00 0.05 0.05 1020.7
20260507175031 -17 39 0.0 0.0 0.00 0.05 0.05 1020.9
20260507174527 -17 38 0.0 0.0 0.00 0.05 0.05 1020.5
20260507174025 -17 47 1.6 1.6 0.00 0.05 0.05 1020.6
20260507173521 -17 58 0.0 1.6 0.00 0.05 0.05 1020.7
20260507173019 -17 49 0.0 0.0 0.00 0.05 0.05 1020.6
20260507172515 -17 49 1.6 3.2 0.00 0.05 0.05 1020.9
20260507172012 -17 59 0.0 0.0 0.00 0.05 0.05 1021.0
20260507171507 -17 51 1.6 3.2 0.00 0.05 0.05 1020.9
20260507171005 -17 49 1.6 1.6 0.00 0.05 0.05 1020.9
20260507170501 -17 47 1.6 1.6 0.00 0.05 0.05 1021.1
20260507165958 -17 46 0.0 0.0 0.00 0.05 0.05 1021.3
20260507165454 -17 42 0.0 1.6 0.00 0.05 0.05 1021.1
20260507164950 -17 44 1.6 1.6 0.00 0.05 0.05 1021.1
20260507164447 -17 47 0.0 0.0 0.00 0.05 0.05 1021.3
20260507163944 -17 61 0.0 1.6 0.00 0.05 0.05 1021.5
20260507163441 -17 53 0.0 0.0 0.00 0.05 0.05 1021.2
20260507162938 -17 44 1.6 1.6 0.00 0.05 0.05 1021.5
20260507162433 -17 41 0.0 1.6 0.00 0.05 0.05 1021.5
20260507161931 -17 107 3.2 3.2 0.00 0.05 0.05 1021.5
20260507161427 -17 51 1.6 1.6 0.00 0.05 0.05 1021.6
20260507160924 -17 48 0.0 0.0 0.00 0.05 0.05 1021.6
20260507160420 -17 42 3.2 3.2 0.00 0.05 0.05 1021.8
20260507155916 -17 46 1.6 3.2 0.00 0.05 0.05 1021.7
20260507155412 -17 22 0.0 1.6 0.00 0.05 0.05 1021.6
20260507154909 -17 52 0.0 1.6 0.13 0.05 0.05 1021.6
20260507154406 -17 51 1.6 1.6 0.13 0.05 0.05 1021.8
20260507153903 -17 59 1.6 1.6 0.13 0.05 0.05 1021.7
20260507153359 -17 36 0.0 1.6 0.00 0.03 0.03 1021.6
20260507152856 -17 49 1.6 1.6 0.00 0.03 0.03 1021.7
20260507152352 -17 57 4.8 4.8 0.18 0.03 0.03 1021.6
20260507151848 -17 46 1.6 1.6 0.18 0.03 0.03 1021.7
20260507151344 -17 0.0 0.0 0.00 0.00 0.00 1021.7
20260507150842 -17 0.0 0.0 0.00 0.00 0.00 1021.6
20260507150338 -17 0.0 0.0 0.00 0.00 0.00 1021.7
20260507145834 -17 0.0 0.0 0.00 0.00 0.00 1021.8
20260507145331 -17 0.0 0.0 0.00 0.00 0.00 1021.8
20260507144829 -17 0.0 0.0 0.00 0.00 0.00 1022.0
20260507144326 -17 0.0 0.0 0.00 0.00 0.00 1022.0
20260507143822 -17 0.0 0.0 0.00 0.00 0.00 1022.1
20260507143319 -17 0.0 0.0 0.00 0.00 0.00 1021.7
20260507142815 -17 0.0 0.0 0.00 0.00 0.00 1021.8
20260507142312 -17 0.0 0.0 0.00 0.00 0.00 1021.7
20260507141809 -17 0.0 0.0 0.00 0.00 0.00 1022.0
20260507141306 -17 0.0 0.0 0.00 0.00 0.00 1021.8
20260507140801 -17 0.0 0.0 0.00 0.00 0.00 1021.8
20260507140259 -17 0.0 0.0 0.00 0.00 0.00 1022.0
20260507135756 -17 0.0 0.0 0.00 0.00 0.00 1021.7
20260507135253 -17 0.0 0.0 0.00 0.00 0.00 1021.7
20260507134750 -17 0.0 0.0 0.00 0.00 0.00 1021.8
20260507134246 -17 0.0 0.0 0.00 0.00 0.00 1021.7
20260507133742 -17 0.0 0.0 0.00 0.00 0.00 1021.6
20260507133239 -17 0.0 0.0 0.00 0.00 0.00 1021.7
20260507132736 -17 0.0 0.0 0.00 0.00 0.00 1021.8
20260507132233 -17 0.0 0.0 0.00 0.00 0.00 1021.7
20260507131730 -17 0.0 0.0 0.00 0.00 0.00 1021.5
20260507131227 -17 0.0 0.0 0.00 0.00 0.00 1021.5
20260507130724 -17 0.0 0.0 0.00 0.00 0.00 1021.5
20260507130222 -17 0.0 0.0 0.00 0.00 0.00 1021.6
20260507125720 -17 0.0 0.0 0.00 0.00 0.00 1021.5
20260507125217 -17 0.0 0.0 0.00 0.00 0.00 1021.3
20260507124714 -17 0.0 0.0 0.00 0.00 0.00 1021.5
20260507124211 -17 0.0 0.0 0.00 0.00 0.00 1021.3
20260507123709 -17 0.0 0.0 0.00 0.00 0.00 1021.2
20260507123206 -17 0.0 0.0 0.00 0.00 0.00 1021.0
20260507122701 -17 0.0 0.0 0.00 0.00 0.00 1021.1
20260507122157 -17 0.0 0.0 0.00 0.00 0.00 1021.3
20260507121653 -17 0.0 0.0 0.00 0.00 0.00 1021.0
20260507121149 -17 0.0 0.0 0.00 0.00 0.00 1021.0
20260507120646 -17 0.0 0.0 0.00 0.00 0.00 1021.0
20260507120143 -17 0.0 0.0 0.00 0.00 0.00 1021.0
20260507115639 -17 0.0 0.0 0.00 0.00 0.00 1021.0
20260507115134 -17 0.0 0.0 0.00 0.00 0.00 1021.2
20260507114630 -17 0.0 0.0 0.00 0.00 0.00 1021.1
20260507114128 -17 0.0 0.0 0.00 0.00 0.00 1021.2
20260507113625 -17 0.0 0.0 0.00 0.00 0.00 1021.2
20260507113122 -17 0.0 0.0 0.00 0.00 0.00 1021.0
20260507112620 -17 0.0 0.0 0.00 0.00 0.00 1021.2
20260507112116 -17 0.0 0.0 0.00 0.00 0.00 1021.0
20260507111614 -17 0.0 0.0 0.00 0.00 0.00 1021.3
20260507111110 -17 0.0 0.0 0.00 0.00 0.00 1021.0
20260507110607 -17 0.0 0.0 0.00 0.00 0.00 1021.0
20260507110103 -17 0.0 0.0 0.00 0.00 0.00 1021.1
20260507105600 -17 0.0 0.0 0.00 0.00 0.00 1021.1
20260507105056 -17 0.0 0.0 0.00 0.00 0.00 1021.0
20260507104554 -17 0.0 0.0 0.00 0.00 0.00 1021.1
20260507104050 -17 0.0 0.0 0.00 0.00 0.00 1021.0
20260507103546 -17 0.0 0.0 0.00 0.00 0.00 1021.0
20260507103043 -17 0.0 0.0 0.00 0.00 0.00 1021.0
20260507102539 -17 0.0 0.0 0.00 0.00 0.00 1021.0
20260507102036 -17 0.0 0.0 0.00 0.00 0.00 1021.2
20260507101531 -17 0.0 0.0 0.00 0.00 0.00 1021.0
20260507101027 -17 0.0 0.0 0.00 0.00 0.00 1021.0
20260507100525 -17 0.0 0.0 0.00 0.00 0.00 1021.1
20260507100023 -17 0.0 0.0 0.00 0.00 0.00 1021.5
20260507095521 -17 0.0 0.0 0.00 0.00 0.00 1021.0
20260507095017 -17 0.0 0.0 0.00 0.00 0.00 1021.2
20260507094513 -17 0.0 0.0 0.00 0.00 0.00 1021.3
20260507094011 -17 0.0 0.0 0.00 0.00 0.00 1021.3
20260507093508 -17 0.0 0.0 0.00 0.00 0.00 1021.5
20260507093007 -17 0.0 0.0 0.00 0.00 0.00 1021.3
20260507092502 -17 0.0 0.0 0.00 0.00 0.00 1021.3
20260507091959 -17 0.0 0.0 0.00 0.00 0.00 1021.1
20260507091456 -17 0.0 0.0 0.00 0.00 0.00 1021.6
20260507090952 -17 0.0 0.0 0.00 0.00 0.00 1021.3
20260507090448 -17 0.0 0.0 0.00 0.00 0.00 1021.3
20260507085945 -17 0.0 0.0 0.00 0.00 0.00 1021.3
20260507085442 -17 0.0 0.0 0.00 0.00 0.00 1021.3
20260507084938 -17 0.0 0.0 0.00 0.00 0.00 1021.8
20260507084436 -17 0.0 0.0 0.00 0.00 0.00 1021.5
20260507083933 -17 0.0 0.0 0.00 0.00 0.00 1021.5
20260507083429 -17 0.0 0.0 0.00 0.00 0.00 1021.5
20260507082925 -17 0.0 0.0 0.00 0.00 0.00 1021.6
20260507082421 -17 0.0 0.0 0.00 0.00 0.00 1021.5
20260507081918 -17 0.0 0.0 0.00 0.00 0.00 1021.7
20260507081414 -17 0.0 0.0 0.00 0.00 0.00 1021.7
20260507080911 -17 0.0 0.0 0.00 0.00 0.00 1021.7
20260507080408 -17 0.0 0.0 0.00 0.00 0.00 1021.6
20260507075903 -17 0.0 0.0 0.00 0.00 0.00 1021.8
20260507075359 -17 0.0 0.0 0.00 0.00 0.00 1022.0
20260507074856 -17 0.0 0.0 0.00 0.00 0.00 1022.1
20260507074353 -17 0.0 0.0 0.00 0.00 0.00 1022.1
20260507073850 -17 0.0 0.0 0.00 0.00 0.00 1022.2
20260507073347 -17 0.0 0.0 0.00 0.00 0.00 1022.3
20260507072844 -17 0.0 0.0 0.00 0.00 0.00 1022.2
20260507072341 -17 0.0 0.0 0.00 0.00 0.00 1022.2
20260507071839 -17 0.0 0.0 0.00 0.00 0.00 1022.0
20260507071336 -17 0.0 0.0 0.00 0.00 0.00 1022.1
20260507070832 -17 0.0 0.0 0.00 0.00 0.00 1022.1
20260507070329 -17 0.0 0.0 0.00 0.00 0.00 1022.2
20260507065826 -17 0.0 0.0 0.00 0.00 0.00 1022.3
20260507065322 -17 0.0 0.0 0.00 0.00 0.00 1022.1
20260507064820 -17 0.0 0.0 0.00 0.00 0.00 1022.3
20260507064318 -17 0.0 0.0 0.00 0.00 0.00 1022.2
20260507063816 -17 0.0 0.0 0.00 0.00 0.00 1022.6
20260507063312 -17 0.0 0.0 0.00 0.00 0.00 1022.2
20260507062809 -17 0.0 0.0 0.00 0.00 0.00 1022.2
20260507062306 -17 0.0 0.0 0.00 0.00 0.00 1022.0
20260507061804 -17 0.0 0.0 0.00 0.00 0.00 1022.0
20260507061302 -17 0.0 0.0 0.00 0.00 0.00 1022.2
20260507060800 -17 0.0 0.0 0.00 0.00 0.00 1022.2
20260507060256 -17 0.0 0.0 0.00 0.00 0.00 1022.2
20260507055753 -17 0.0 0.0 0.00 0.00 0.00 1022.2
20260507055248 -17 0.0 0.0 0.00 0.00 0.00 1022.0
20260507054745 -17 0.0 0.0 0.00 0.00 0.00 1022.1
20260507054241 -17 0.0 0.0 0.00 0.00 0.00 1022.0
20260507053739 -17 0.0 0.0 0.00 0.00 0.00 1022.0
20260507053236 -17 0.0 0.0 0.00 0.00 0.00 1022.2
20260507052735 -17 0.0 0.0 0.00 0.00 0.00 1022.1
20260507052231 -17 0.0 0.0 0.00 0.00 0.00 1022.1
20260507051729 -17 0.0 0.0 0.00 0.00 0.00 1022.1
20260507051226 -17 0.0 0.0 0.00 0.00 0.00 1022.0
20260507050722 -17 0.0 0.0 0.00 0.00 0.00 1022.0
20260507050220 -17 0.0 0.0 0.00 0.00 0.00 1022.0
20260507045716 -17 0.0 0.0 0.00 0.00 0.00 1022.1
20260507045212 -17 0.0 0.0 0.00 0.00 0.00 1021.8
20260507044710 -17 0.0 0.0 0.00 0.00 0.00 1022.1
20260507044206 -17 0.0 0.0 0.00 0.00 0.00 1021.8
20260507043702 -17 0.0 0.0 0.00 0.00 0.00 1021.8
20260507043159 -17 0.0 0.0 0.00 0.00 0.00 1021.7
20260507042656 -17 0.0 0.0 0.00 0.00 0.00 1021.8
20260507042151 -17 0.0 0.0 0.00 0.00 0.00 1021.8
20260507041648 -17 0.0 0.0 0.00 0.00 0.00 1021.7
20260507041144 -17 0.0 0.0 0.00 0.00 0.00 1021.5
20260507040642 -17 0.0 0.0 0.00 0.00 0.00 1021.6
20260507040138 -17 0.0 0.0 0.00 0.00 0.00 1021.7
20260507035634 -17 0.0 0.0 0.00 0.00 0.00 1021.7
20260507035130 -17 0.0 0.0 0.00 0.00 0.00 1021.7
20260507034627 -17 0.0 0.0 0.00 0.00 0.00 1021.7
20260507034125 -17 0.0 0.0 0.00 0.00 0.00 1021.2
20260507033623 -17 0.0 0.0 0.00 0.00 0.00 1021.5
20260507033120 -17 0.0 0.0 0.00 0.00 0.00 1021.2
20260507032617 -17 0.0 0.0 0.00 0.00 0.00 1021.5
20260507032113 -17 0.0 0.0 0.00 0.00 0.00 1021.3
20260507031610 -17 0.0 0.0 0.00 0.00 0.00 1021.3
20260507031106 -17 0.0 0.0 0.00 0.00 0.00 1021.3
20260507030603 -17 0.0 0.0 0.00 0.00 0.00 1021.2
20260507030101 -17 0.0 0.0 0.00 0.00 0.00 1021.1
20260507025558 -17 0.0 0.0 0.00 0.00 0.00 1021.1
20260507025055 -17 0.0 0.0 0.00 0.00 0.00 1021.0
20260507024553 -17 0.0 0.0 0.00 0.00 0.00 1021.0
20260507024050 -17 0.0 0.0 0.00 0.00 0.00 1021.1
20260507023545 -17 0.0 0.0 0.00 0.00 0.00 1021.1
20260507023043 -17 0.0 0.0 0.00 0.00 0.00 1020.9
20260507022539 -17 0.0 0.0 0.00 0.00 0.00 1021.0
20260507022035 -17 0.0 0.0 0.00 0.00 0.00 1021.1
20260507021531 -17 0.0 0.0 0.00 0.00 0.00 1021.1
20260507021028 -17 0.0 0.0 0.00 0.00 0.00 1021.1
20260507020525 -17 0.0 0.0 0.00 0.00 0.00 1021.0
20260507020022 -17 0.0 0.0 0.00 0.00 0.00 1021.0
20260507015520 -17 0.0 0.0 0.00 0.00 0.00 1021.1
20260507015017 -17 0.0 0.0 0.00 0.00 0.00 1021.0
20260507014514 -17 0.0 0.0 0.00 0.00 0.00 1021.3
20260507014010 -17 0.0 0.0 0.00 0.00 0.00 1021.0
20260507013506 -17 0.0 0.0 0.00 0.00 0.00 1021.1
20260507013004 -17 0.0 0.0 0.00 0.00 0.00 1021.1
20260507012501 -17 0.0 0.0 0.00 0.00 0.00 1021.2
20260507011957 -17 0.0 0.0 0.00 0.00 0.00 1021.2
20260507011454 -17 0.0 0.0 0.00 0.00 0.00 1021.1
20260507010950 -17 0.0 0.0 0.00 0.00 0.00 1021.0
20260507010444 -17 0.0 0.0 0.00 0.00 0.00 1021.3
20260507005942 -17 0.0 0.0 0.00 0.00 0.00 1021.2
20260507005439 -17 0.0 0.0 0.00 0.00 0.00 1021.6
20260507004935 -17 0.0 0.0 0.00 0.00 0.00 1021.3
20260507004432 -17 0.0 0.0 0.00 0.00 0.00 1021.3
20260507003930 -17 0.0 0.0 0.00 0.00 0.00 1021.2
20260507003425 -17 0.0 0.0 0.00 0.00 0.00 1021.2
20260507002920 -17 0.0 0.0 0.00 0.00 0.00 1021.1
20260507002416 -17 0.0 0.0 0.00 0.00 0.00 1021.2
20260507001914 -17 0.0 0.0 0.00 0.00 0.00 1021.2
20260507001410 -17 0.0 0.0 0.00 0.00 0.00 1021.1
20260507000908 -17 0.0 0.0 0.00 0.00 0.00 1021.3
20260507000405 -17 0.0 0.0 0.00 0.00 0.00 1021.2
20260506235859 -17 0.0 0.0 0.00 0.00 0.00 1021.3
20260506235356 -17 0.0 0.0 0.00 0.00 0.00 1021.3
20260506234852 -17 0.0 0.0 0.00 0.00 0.00 1021.2
20260506234350 -17 0.0 0.0 0.00 0.00 0.00 1021.3
20260506233847 -17 0.0 0.0 0.00 0.00 0.00 1021.1
20260506233343 -17 0.0 0.0 0.00 0.00 0.00 1021.2
20260506232841 -17 0.0 0.0 0.00 0.00 0.00 1021.5
20260506232336 -17 0.0 0.0 0.00 0.00 0.00 1021.6
20260506231833 -17 0.0 0.0 0.00 0.00 0.00 1021.2
20260506231331 -17 0.0 0.0 0.00 0.00 0.00 1021.5
20260506230828 -17 0.0 0.0 0.00 0.00 0.00 1021.2
20260506230324 -17 0.0 0.0 0.00 0.00 0.00 1021.5
20260506225820 -17 0.0 0.0 0.00 0.00 0.00 1021.3
20260506225318 -17 0.0 0.0 0.00 0.00 0.00 1021.6
20260506224815 -17 0.0 0.0 0.00 0.00 0.00 1021.2
20260506224312 -17 0.0 0.0 0.00 0.00 0.00 1021.3
20260506223808 -17 0.0 0.0 0.00 0.00 0.00 1021.2
20260506223303 -17 0.0 0.0 0.00 0.00 0.00 1021.7
20260506222801 -17 0.0 0.0 0.00 0.00 0.00 1021.7
20260506222256 -17 0.0 0.0 0.00 0.00 0.00 1021.8
20260506221754 -17 0.0 0.0 0.00 0.00 0.00 1021.3
20260506221252 -17 0.0 0.0 0.00 0.00 0.00 1021.6
20260506220749 -17 0.0 0.0 0.00 0.00 0.00 1021.8
20260506220244 -17 0.0 0.0 0.00 0.00 0.00 1021.7
20260506215741 -17 0.0 0.0 0.00 0.00 0.00 1021.8
20260506215237 -17 0.0 0.0 0.00 0.00 0.00 1022.0
20260506214733 -17 0.0 0.0 0.00 0.00 0.00 1021.8
20260506214230 -17 0.0 0.0 0.00 0.00 0.00 1022.2
20260506213728 -17 0.0 0.0 0.00 0.00 0.00 1022.0
20260506213225 -17 0.0 0.0 0.00 0.00 0.00 1022.0
20260506212723 -17 0.0 0.0 0.00 0.00 0.00 1022.1
20260506212218 -17 0.0 0.0 0.00 0.00 0.00 1022.3
20260506211714 -17 0.0 0.0 0.00 0.00 0.00 1022.2
20260506211210 -17 0.0 0.0 0.00 0.00 0.00 1022.4
20260506210707 -17 0.0 0.0 0.00 0.00 0.00 1022.4
20260506210204 -17 0.0 0.0 0.00 0.00 0.00 1022.4
20260506205701 -17 0.0 0.0 0.00 0.00 0.00 1022.2
20260506205156 -17 0.0 0.0 0.00 0.00 0.00 1022.6
20260506204654 -17 0.0 0.0 0.00 0.00 0.00 1022.4
20260506204150 -17 0.0 0.0 0.00 0.00 0.00 1022.4
20260506203649 -17 0.0 0.0 0.00 0.00 0.00 1022.4
20260506203146 -17 0.0 0.0 0.00 0.00 0.00 1022.3
20260506202644 -17 0.0 0.0 0.00 0.00 0.00 1022.6
20260506202139 -17 0.0 0.0 0.00 0.00 0.00 1022.7
20260506201636 -17 0.0 0.0 0.00 0.00 0.00 1022.7
20260506201133 -17 0.0 0.0 0.00 0.00 0.00 1022.8
20260506200629 -17 0.0 0.0 0.00 0.00 0.00 1022.7
20260506200126 -17 0.0 0.0 0.00 0.00 0.00 1022.6
20260506195623 -17 0.0 0.0 0.00 0.00 0.00 1022.7
20260506195119 -17 0.0 0.0 0.00 0.00 0.00 1022.6
20260506194617 -17 0.0 0.0 0.00 0.00 0.00 1022.6
20260506194113 -17 0.0 0.0 0.00 0.00 0.00 1022.3
20260506193611 -17 0.0 0.0 0.00 0.00 0.00 1022.6